Regional Weather Roundup
Issued by NWS New Orleans/Baton Rouge, LA

Home | Current Version | Previous Version | Text Only | Print | Product List | Glossary On
Versions: 1 2 3 4 5 6 7 8 9 10 11 12 13 14 15 16 17 18 19 20 21 22 23 24 25 26 27
000
ASUS44 KLIX 240511
RWRLIX
NEW ORLEANS REGIONAL WEATHER ROUNDUP
NATIONAL WEATHER SERVICE NEW ORLEANS LA
1200 AM CDT WED AUG 24 2016

NOTE: "FAIR" INDICATES FEW OR NO CLOUDS BELOW 12,000 FEET WITH NO
      SIGNIFICANT WEATHER AND/OR OBSTRUCTIONS TO VISIBILITY.
      SKY/WX - SKY CONDITION AND SIGNIFICANT WEATHER.
      TMP - AIR TEMPERATURE.     DP    - DEWPOINT TEMPERATURE.
      RH  - RELATIVE HUMIDITY.   PRES  - PRESSURE.
      HI  - HEAT INDEX.          WCI   - WIND CHILL INDEX.

*  THESE STATIONS ARE NOT NWS OR FAA STATIONS AND ARE NOT UNDER
   NWS QUALITY CONTROL.

LAZ038-040-048-061>063-065>067-069-240600-
SOUTHEAST LOUISIANA

CITY           SKY/WX    TMP DP  RH WIND       PRES   REMARKS
N.O. AUDUBON     N/A     81  77  89 MISG        N/A
N.O. INTL ARPT PTCLDY    83  76  79 W5        30.15F
N.O. LAKEFRONT CLEAR     85  75  72 W5        30.16S
N.O. DOWNTOWN*   N/A     83  76  79 CALM      30.16S
RESERVE*         N/A     81  78  89 CALM      30.16S
SLIDELL        NOT AVBL
BATON ROUGE    MOCLDY    81  78  91 CALM      30.16S
BOOTHVILLE     CLEAR     84  77  79 SE3       30.16S
BELLE CHASSE   CLEAR     79  77  94 CALM      30.15S
BOGALUSA*        N/A     80  75  84 CALM      30.18R
GALLIANO*      CLEAR    N/A N/A N/A CALM      30.15F
NEW ROADS*     MOCLDY    81  75  84 E3        30.16F
GONZALES*        N/A     78  77  96 CALM      30.15S
HAMMOND*       PTCLDY    79  73  83 CALM      30.16S
HOUMA*         CLEAR     76  76 100 CALM      30.15F
PORT FOURCHON* CLEAR     86  75  70 CALM      30.15F HX  95

$$

MSZ070-080>082-240600-
SOUTHERN MISSISSIPPI

CITY           SKY/WX    TMP DP  RH WIND       PRES   REMARKS
MCCOMB         PTCLDY    76  73  91 N5        30.18F
GULFPORT       CLEAR     80  75  84 CALM      30.15S
BILOXI         CLEAR     82  78  89 N2        30.15S
PASCAGOULA     CLEAR     78  78 100 CALM      30.15F FOG

$$

COASTAL OBSERVATIONS
LAKE AND NEARSHORE STATIONS

STATION/POSITION TIME  TEMP    WIND        PRES    WAVE
                       AIR SEA DIR/SP/G            HT/PER
                 (UTC) (F)     (DEG/KT/KT) (MB)    (FT/S)
PASCAGOULA       0400   84     360/  2/  2 1020.8
WAVELAND YACHT   0400   82 87  360/  5/  5 1021.2
GRAND ISLE       0400   86 89  220/  2/  3 1021.3
SOUTHWEST PASS   0400          350/  3/  4   N/A
NEW CANAL        0400   84 89  220/  3/  4 1020.3
SHELL BEACH      0400   86 89  170/  3/  3 1021.1

OFFSHORE STATIONS

STATION/POSITION TIME  TEMP    WIND        PRES    WAVE
                       AIR SEA DIR/SP/G            HT/PER
                 (UTC) (F)     (DEG/KT/KT) (MB)    (FT/S)
64 S DAUPHIN ISL 0400   86 89   70/  2/  2 1021.0

$$





USA.gov is the U.S. government's official web portal to all federal, state and local government web resources and services.